Preview of NWS' New Version of Forecast
This preview is not operational and should not be used for support decisions.

Regional Weather Roundup (RWR)

Issued by National Weather Service (NWS)

                            
000
ASUS43 KMKX 251500
RWRWI 

WISCONSIN REGIONAL WEATHER ROUNDUP
NATIONAL WEATHER SERVICE MILWAUKEE/SULLIVAN WI
1000 AM CDT SUN AUG 25 2019

NOTE: "FAIR" INDICATES FEW OR NO CLOUDS BELOW 12,000 FEET WITH NO
SIGNIFICANT WEATHER AND/OR OBSTRUCTIONS TO VISIBILITY.

WIZ001-002-006>008-014>016-023>028-251600-
NORTHWEST WISCONSIN
  
CITY           SKY/WX    TMP DP  RH WIND       PRES   REMARKS
SUPERIOR ARPT  CLOUDY    66  55  66 S8        30.07F                  
ASHLAND        FAIR      67  53  61 S10G18    30.12F                  
HAYWARD        FAIR      65  54  67 SE12G21   30.12F                  
SIREN          CLOUDY    63  53  68 S8        30.09S                  
CUMBERLAND     CLOUDY    63  52  67 SE9       30.10F                  
RICE LAKE      PTSUNNY   65  47  52 SE10      30.12F                  
CHETEK         FAIR      64  56  76 SE15      30.11F                  
LADYSMITH      FAIR      66  56  71 SE7       30.15S                  
EAU CLAIRE     NOT AVBL                                               
MENOMONIE      FAIR      61  53  73 SE8       30.10S                  
NEW RICHMOND   PTSUNNY   65  53  64 SE8       30.08S                  
OSCEOLA        PTSUNNY   65  56  72 SE12      30.10F                  
$$
 
WIZ003>005-009-010-017-018-251600-
NORTH CENTRAL WISCONSIN
  
CITY           SKY/WX    TMP DP  RH WIND       PRES   REMARKS
MANITOWISH WTR FAIR      65  53  64 S10       30.16F                  
ARBOR VITAE    FAIR      65  56  70 SE8       30.17S                  
WOODRUFF       FAIR      65  56  70 SE8       30.17S                  
RHINELANDER    FAIR      66  54  65 SE13G18   30.18F                  
EAGLE RIVER    FAIR      64  54  70 S8        30.18S                  
LAND O LAKES   FAIR      66  52  61 S9        30.20S                  
PHILLIPS       FAIR      64  56  76 SE10      30.15S                  
TOMAHAWK       FAIR      64  56  76 CALM      30.17S                  
MEDFORD        CLOUDY    61  56  82 SE7       30.15S                  
MERRILL        FAIR      66  57  73 SE7       30.17S                  
$$
 
WIZ029-030-035-036-043>047-251600-
CENTRAL WISCONSIN
  
CITY           SKY/WX    TMP DP  RH WIND       PRES   REMARKS
WAUSAU         FAIR      66  58  75 SE12      30.14F                  
MOSINEE        MOSUNNY   64  63  94 SE8       30.16F                  
MARSHFIELD     PTSUNNY   66  58  75 SE9       30.14S                  
STEVENS POINT  FAIR      64  57  79 SE10G16   30.16S                  
WAUPACA        FAIR      71  58  64 SE10      30.16F                  
WAUTOMA        FAIR      67  58  72 SE7       30.16F                  
WISC RAPIDS    FAIR      67  56  67 SE12G18   30.15S                  
CAMP DOUGLAS   NOT AVBL                                               
$$
 
WIZ011>013-019>022-031-037>040-048>050-251600-
NORTHEAST WISCONSIN
  
CITY           SKY/WX    TMP DP  RH WIND       PRES   REMARKS
ANTIGO         FAIR      64  59  82 SE12      30.18F                  
SHAWANO        FAIR      71  60  69 SE10      30.17S                  
OCONTO         FAIR      70  60  70 SE10G16   30.19S                  
STURGEON BAY   PTSUNNY   68  60  75 SE10      30.21F                  
GREEN BAY      FAIR      71  58  63 S13       30.18F                  
MANITOWOC      FAIR      67  58  72 SE15G21   30.20S                  
APPLETON       NOT AVBL                                               
CLINTONVILLE   FAIR      69  58  68 SE12      30.17S                  
OSHKOSH        FAIR      69  57  65 E13       30.15F                  
$$
 
WIZ032>034-041-042-053>061-251600-
SOUTHWEST WISCONSIN
  
CITY           SKY/WX    TMP DP  RH WIND       PRES   REMARKS
LA CROSSE      FAIR      69  54  58 S10       30.09S                  
SPARTA         PTSUNNY   65  55  70 SE10      30.12S                  
VIROQUA        FAIR      65  60  83 SE9       30.12S                  
BOSCOBEL       CLOUDY    67  56  67 VRB7G16   30.11S                  
PRAIRIE DU CHI FAIR      67  55  64 E9        30.09S                  
PLATTEVILLE    FAIR      66  61  83 SE12      30.11F                  
$$

WIZ056-057-062-063-064-067-068-251600-
SOUTH CENTRAL WISCONSIN
  
CITY           SKY/WX    TMP DP  RH WIND       PRES   REMARKS
REEDSBURG      CLOUDY    65  58  77 SE5       30.14R                  
BARABOO/DELLS  CLOUDY    64  57  78 E3        30.14S                  
LONE ROCK      CLOUDY    64  57  78 E10       30.12F                  
MINERAL POINT  PTSUNNY   64  61  88 SE10      30.12S                  
MADISON        PTSUNNY   67  55  65 SE12      30.13F                  
MIDDLETON      CLOUDY    67  54  63 SE9       30.14S                  
WATERTOWN      FAIR      68  61  78 E9        30.15F                  
MONROE         CLOUDY    64  55  74 E8        30.13S                  
JANESVILLE     PTSUNNY   68  57  68 SE8       30.13F                  
$$
 
WIZ051-052-058>065-066-070>072-251600-
SOUTHEAST WISCONSIN
  
CITY           SKY/WX    TMP DP  RH WIND       PRES   REMARKS
MILWAUKEE      PTSUNNY   71  59  65 SE16G23   30.16F                  
WAUKESHA       NOT AVBL                                               
MILWAUKEE/TIMM PTSUNNY   68  54  60 E10       30.17F                  
RACINE         CLOUDY    70  60  70 E13       30.17F                  
KENOSHA        FAIR      73  60  63 SE14      30.15F                  
FOND DU LAC    FAIR      71  57  61 SE12      30.16F                  
SHEBOYGAN      PTSUNNY   67  58  72 SE12      30.18F                  
WEST BEND      PTSUNNY   68  57  68 SE8       30.17F                  
JUNEAU         FAIR      67  56  69 E10G17    30.17S                  
$$

LSZ147-162-251600-
LAKE SUPERIOR
  
STATION/POSITION TIME  TEMP    WIND        PRES    WAVE
                       AIR SEA DIR/SP/G            HT/PER
                 (UTC) (F)     (DEG/KT/KT) (MB)    (FT/S)
W MID LAKE BUOY  1350   64 63  190/ 16/ 17 1020.0F   4/ 5
DEVILS ISLAND    1400   64     180/ 14/ 21 1019.8F
SAXON HARBOR     1440   67     190/  9/ 16 1020.0S
$$
 
LMZ867-665-643>646-251600-
LAKE MICHIGAN
  
STATION/POSITION TIME  TEMP    WIND        PRES    WAVE
                       AIR SEA DIR/SP/G            HT/PER
                 (UTC) (F)     (DEG/KT/KT) (MB)    (FT/S)
S GREEN BAY BUOY 1430   73 69  130/ 12/ 14 1022.3F
N MID LAKE BUOY  1440   65 69  160/ 12/ 14 1023.9S
NORTHPORT PIER   1440   68     120/  5/  8 1023.0S
KEWAUNEE LAKESHO 1424   67     140/ 11/ 16 1022.0
SHEBOYGAN LAKESH 1400   67     140/ 15/ 16 1022.5F
PORT WASHINGTON  1430   69     130/ 13/ 16 1022.7F
ATWATER BUOY     1430   67 68  130/ 12/ 17 1021.7F   4/ 5
S MID LAKE BUOY  1440   65 72  120/ 12/ 14 1022.3S
KENOSHA   LAKESH 1400   69     120/ 12/ 14 1021.0
$$

TC  - TEMPERATURE IN CELSIUS
VSB - VISIBILITY IN STATUTE MILES
WCI - WIND CHILL INDEX
HX  - HEAT INDEX